This is the latest recevied weather packets stored in our database for station/object KC5TIL. If no packets are shown the sender has not sent any weather packets the latest 10 day(s).
| Time | Temp. | Humidity | Pressure | Rain* | Wind** | Luminosity | Snow |
|---|---|---|---|---|---|---|---|
| 1788620434 | 31.11° C | 62% | 1015.1 hPa | 0 mm | - | 448 W/m² | - |
| 1788620127 | 32.22° C | 62% | 1015.3 hPa | 0 mm | - | 408 W/m² | - |
| 1788619827 | 31.67° C | 61% | 1015.2 hPa | 0 mm | - | 380 W/m² | - |
| 1788619522 | 31.67° C | 61% | 1015.4 hPa | 0 mm | - | 336 W/m² | - |
| 1788619221 | 31.67° C | 62% | 1015.3 hPa | 0 mm | - | 66 W/m² | - |
| 1788618920 | 32.22° C | 62% | 1015.5 hPa | 0 mm | - | 59 W/m² | - |
| 1788618615 | 31.67° C | 63% | 1015.4 hPa | 0 mm | - | 258 W/m² | - |
| 1788618314 | 30.56° C | 65% | 1015.6 hPa | 0 mm | - | 56 W/m² | - |
| 1788618009 | 31.11° C | 66% | 1015.4 hPa | 0 mm | - | 259 W/m² | - |
| 1788617703 | 30.56° C | 66% | 1015.5 hPa | 0 mm | - | 224 W/m² | - |
| 1788617400 | 30.56° C | 69% | 1015.4 hPa | 0 mm | - | 186 W/m² | - |
| 1788617095 | 30° C | 69% | 1015.4 hPa | 0 mm | - | 193 W/m² | - |
| 1788616793 | 30.56° C | 68% | 1015.3 hPa | 0 mm | - | 195 W/m² | - |
| 1788616489 | 30° C | 68% | 1015.4 hPa | 0 mm | - | 196 W/m² | - |
| 1788616185 | 29.44° C | 70% | 1015.5 hPa | 0 mm | - | 169 W/m² | - |
| 1788615884 | 29.44° C | 71% | 1015.4 hPa | 0 mm | - | 153 W/m² | - |
| 1788615583 | 29.44° C | 71% | 1015.2 hPa | 0 mm | - | 128 W/m² | - |
| 1788615278 | 28.89° C | 72% | 1015.4 hPa | 0 mm | - | 120 W/m² | - |
| 1788614978 | 28.89° C | 73% | 1015.3 hPa | 0 mm | - | 115 W/m² | - |
| 1788614673 | 28.33° C | 75% | 1015.2 hPa | 0 mm | - | 67 W/m² | - |
| 1788614368 | 28.33° C | 75% | 1015.3 hPa | 0 mm | - | 58 W/m² | - |
| 1788614078 | 27.78° C | 76% | 1015.1 hPa | 0 mm | - | 54 W/m² | - |
| 1788613763 | 27.22° C | 77% | 1015 hPa | 0 mm | - | 49 W/m² | - |
| 1788613458 | 26.67° C | 80% | 1014.9 hPa | 0 mm | - | 38 W/m² | - |
| 1788613158 | 26.67° C | 79% | 1015.1 hPa | 0 mm | - | 29 W/m² | - |
* Rain latest hour (hover to see other rain measurements)
** Current wind speed in m/s (hover to see current wind gust speed)